Temp
5 6 6 5 5 4 4 5 3 5 5 7 9 9 10 8 7 6 5 5 5 5 6 6 6 7 7 8 8 7 6 6 6 7 6 6 6 6 6 6 5 4 3 2
3 5 5 5 5 5 5 6 5 6 6 9 9 10 10 6 5 4 4 3 5 5 6 6 5 5 6 6 6 5 4 4 4 4 4 4 5 4 4 3 2 2 2 2
2 5 6 5 5 5 6 5 7 6 8 10 10 9 7 5 3 3 3 2 3 4 4 4 5 5 5 4 3 3 4 3 1 1 2 1 1 1 1 1 1 1 1 1
4 4 6 7 8 7 6 7 7 9 9 10 9 8 5 4 2 2 1 1 1 2 3 2 2 3 3 3 3 2 2 1 1 1 0 -0 0 0 0 0 -0 0 0 0
6 5 5 10 8 6 7 9 8 8 9 10 8 5 5 3 2 1 1 1 1 1 2 2 1 1 2 2 2 1 2 1 1 0 0 -1 -0 -0 -0 -0 -0 0 -0 -0
5 5 5 9 9 9 9 8 9 9 9 8 6 7 5 1 1 1 1 0 0 0 1 0 -0 0 0 -0 -0 -0 -1 0 0 -1 -0 -0 0 0 -0 -1 -0 0 -1 -3
6 6 5 6 8 9 9 9 10 9 9 8 6 5 2 2 1 0 -0 -1 -1 -0 -0 -1 -0 -0 0 -0 -0 -1 -1 -1 -1 -1 -1 -0 -0 -1 -1 -0 -1 -1 -2 -2
5 5 4 8 8 9 9 9 9 8 8 8 6 4 2 2 1 0 -1 -1 -1 -0 -1 -1 -1 -1 -1 -2 -2 -2 -2 -1 -1 -1 -1 -1 -1 -1 -1 -1 -1 -2 -2 -2
5 5 7 9 9 10 10 9 8 8 7 7 6 4 3 3 1 0 -0 -1 -2 -1 -1 -1 -1 -1 -1 -2 -1 -1 -1 -1 -1 -1 -1 -1 -1 -0 -1 -1 -2 -2 -2 -3
6 8 7 9 10 9 9 9 8 7 7 6 6 4 4 3 2 1 1 0 -1 -0 -1 -1 -1 -1 -0 -1 -1 -1 -1 -1 -1 -0 -0 -1 -1 -2 -2 -2 -2 -2 -2 -3
7 6 9 10 10 10 10 8 7 7 6 6 5 5 4 3 3 2 1 2 1 1 0 -0 -0 -0 -0 -0 -0 -0 -0 -0 -1 -1 -1 -1 -1 -2 -2 -2 -2 -2 -3 -4
5 8 8 9 10 9 9 9 8 7 6 5 5 5 5 4 4 3 2 1 1 0 0 0 -0 -0 0 0 -0 -0 -0 -0 -1 -1 -1 -1 -2 -2 -2 -2 -3 -3 -4 -4
7 8 8 9 9 10 9 9 8 7 7 6 5 4 4 4 4 3 2 2 1 1 1 1 1 0 -0 -1 -1 -0 -0 -1 -1 -1 -2 -2 -2 -2 -3 -3 -4 -5 -6 -6
8 8 8 8 9 8 8 8 7 7 6 5 5 4 4 3 3 3 3 3 2 2 2 1 0 0 -0 -0 -1 -1 -1 -1 -1 -1 -1 -2 -2 -2 -3 -4 -5 -5 -6 -7
6 6 6 7 8 8 7 7 7 6 5 4 4 4 3 3 2 2 2 2 2 2 2 1 1 1 0 -0 -0 -0 -0 -1 -1 -1 -2 -2 -3 -3 -4 -4 -5 -6 -7 -7
5 6 6 6 6 7 6 6 5 5 4 4 3 3 2 2 2 1 1 1 2 2 1 1 1 1 1 -0 -0 -1 -1 -1 -2 -2 -2 -3 -3 -4 -5 -5 -6 -7 -7 -8
2 4 5 5 6 6 6 5 5 4 4 3 2 2 2 1 1 1 0 1 1 1 2 1 1 1 0 -0 -1 -1 -1 -2 -2 -2 -3 -3 -4 -5 -5 -6 -6 -7 -8 -9
1 2 3 3 4 4 5 5 4 3 3 2 2 1 1 1 1 0 0 0 1 0 1 1 1 0 0 -0 -1 -2 -2 -2 -2 -3 -4 -4 -4 -5 -6 -6 -7 -8 -9 -9
1 2 3 4 4 4 4 4 3 3 2 2 1 1 0 0 0 0 -0 -0 0 1 1 0 0 -0 -0 -1 -2 -2 -2 -2 -3 -3 -4 -4 -5 -5 -6 -7 -8 -8 -8 -9
2 2 3 3 4 4 4 3 3 2 2 1 1 0 0 -0 -0 -0 -0 -0 1 1 1 0 -0 -1 -1 -1 -2 -2 -2 -3 -3 -4 -4 -5 -5 -6 -7 -7 -8 -8 -9 -9
1 1 2 3 3 3 3 3 2 2 2 1 1 1 1 1 0 0 1 1 1 0 0 -0 -1 -1 -1 -2 -2 -2 -3 -3 -4 -4 -4 -5 -6 -6 -7 -7 -8 -8 -9 -9
0 1 1 1 2 2 2 2 2 2 2 2 1 0 1 0 0 0 0 1 1 -0 -0 -1 -1 -1 -2 -2 -2 -3 -3 -3 -4 -4 -5 -5 -6 -7 -7 -8 -8 -8 -8 -9
-1 -0 1 1 1 2 2 2 2 2 3 3 2 2 1 1 1 1 1 0 -0 0 -1 -1 -1 -2 -2 -2 -2 -3 -3 -4 -4 -4 -5 -6 -6 -7 -8 -8 -8 -8 -8 -8
-1 0 1 1 1 1 2 2 2 2 2 1 1 2 2 1 1 1 1 0 -0 -1 -1 -1 -1 -2 -2 -2 -3 -3 -4 -4 -4 -5 -5 -6 -7 -7 -8 -8 -8 -8 -8 -9
-0 -1 -1 -0 0 0 0 0 0 1 1 1 2 1 1 1 1 2 0 0 -0 -1 -1 -1 -2 -2 -2 -3 -3 -3 -4 -4 -5 -5 -6 -6 -7 -7 -8 -8 -8 -8 -8 -8
-0 -0 -1 -1 -1 -1 -1 -1 -1 -1 -0 -0 -0 0 0 0 -0 -0 0 -0 -0 -1 -1 -2 -2 -2 -3 -3 -3 -4 -4 -4 -5 -5 -6 -6 -7 -8 -8 -8 -8 -9 -8 -8
-1 -2 -1 -1 -1 -1 -1 -1 -1 -1 -1 -1 -1 -1 -1 -0 -0 -1 -1 -0 -0 -1 -2 -2 -2 -3 -3 -3 -4 -4 -5 -5 -5 -6 -6 -7 -7 -8 -8 -8 -8 -8 -8 -8
Height
1465 1464 1464 1468 1469 1473 1475 1475 1485 1464 1462 1449 1446 1444 1440 1438 1437 1433 1430 1426 1422 1420 1418 1417 1417 1416 1415 1413 1413 1410 1409 1408 1409 1411 1413 1414 1417 1421 1424 1427 1432 1438 1443 1451
1472 1463 1464 1466 1463 1465 1467 1467 1467 1461 1456 1442 1443 1440 1437 1436 1433 1433 1429 1425 1420 1419 1418 1417 1417 1416 1415 1413 1411 1409 1409 1409 1411 1413 1414 1415 1417 1422 1426 1428 1435 1442 1446 1451
1479 1464 1460 1464 1454 1455 1457 1458 1457 1462 1443 1439 1438 1436 1434 1433 1434 1431 1429 1427 1424 1421 1421 1419 1418 1417 1416 1414 1412 1410 1409 1411 1414 1417 1418 1419 1423 1426 1431 1433 1438 1445 1449 1454
1473 1468 1460 1444 1438 1440 1446 1445 1449 1443 1439 1436 1436 1434 1432 1432 1432 1431 1430 1427 1425 1424 1423 1422 1420 1419 1417 1416 1414 1412 1414 1416 1419 1422 1424 1424 1427 1429 1433 1438 1443 1447 1452 1457
1465 1469 1458 1436 1438 1443 1444 1439 1437 1438 1434 1434 1433 1432 1431 1431 1431 1430 1428 1426 1425 1425 1424 1423 1423 1422 1421 1419 1418 1416 1416 1418 1420 1425 1427 1430 1430 1433 1438 1442 1447 1449 1452 1456
1467 1471 1462 1439 1436 1435 1436 1442 1431 1432 1430 1432 1434 1433 1432 1432 1431 1429 1427 1427 1426 1426 1425 1425 1425 1425 1423 1422 1421 1420 1420 1421 1424 1429 1433 1435 1436 1439 1443 1448 1448 1450 1455 1461
1464 1462 1456 1440 1436 1436 1441 1445 1432 1431 1431 1431 1432 1432 1431 1431 1429 1428 1428 1427 1427 1427 1427 1426 1427 1428 1427 1426 1425 1426 1428 1430 1433 1436 1439 1440 1441 1445 1447 1448 1451 1456 1460 1461
1461 1463 1464 1436 1437 1438 1435 1432 1431 1429 1429 1429 1430 1429 1430 1430 1428 1427 1427 1427 1428 1428 1428 1430 1431 1432 1431 1431 1432 1433 1435 1437 1439 1441 1443 1444 1447 1449 1452 1454 1456 1459 1460 1460
1454 1450 1436 1435 1434 1432 1430 1429 1429 1427 1427 1427 1428 1428 1429 1429 1429 1428 1428 1429 1429 1430 1431 1432 1433 1434 1434 1435 1438 1440 1442 1443 1445 1446 1448 1451 1453 1454 1455 1457 1459 1460 1460 1459
1446 1432 1433 1430 1430 1428 1427 1427 1427 1425 1424 1425 1426 1427 1428 1429 1430 1430 1430 1431 1432 1433 1434 1435 1437 1439 1440 1442 1444 1446 1447 1448 1450 1452 1453 1454 1455 1456 1457 1459 1459 1459 1459 1459
1437 1432 1428 1425 1426 1425 1425 1425 1424 1422 1422 1423 1425 1426 1428 1429 1431 1432 1433 1434 1436 1438 1439 1440 1442 1444 1445 1447 1449 1450 1452 1453 1454 1455 1456 1457 1458 1459 1460 1460 1460 1459 1458 1457
1436 1430 1430 1427 1426 1425 1423 1422 1422 1421 1420 1421 1424 1425 1427 1429 1431 1433 1435 1436 1438 1441 1442 1444 1446 1448 1449 1451 1453 1454 1455 1456 1457 1458 1459 1459 1460 1460 1459 1459 1458 1457 1456 1455
1427 1427 1426 1423 1423 1422 1421 1420 1420 1419 1419 1420 1422 1424 1426 1429 1431 1433 1436 1438 1440 1442 1444 1446 1448 1450 1452 1453 1455 1457 1457 1458 1459 1459 1460 1460 1460 1460 1460 1459 1458 1456 1454 1453
1424 1423 1420 1419 1419 1418 1418 1417 1417 1417 1418 1419 1421 1422 1425 1428 1430 1433 1435 1438 1441 1443 1445 1448 1450 1452 1453 1455 1456 1457 1459 1459 1460 1461 1461 1461 1461 1460 1459 1458 1456 1454 1453 1451
1421 1421 1420 1418 1417 1416 1416 1415 1415 1415 1416 1417 1418 1421 1422 1425 1427 1430 1434 1438 1441 1444 1447 1449 1451 1453 1454 1456 1458 1459 1460 1461 1461 1462 1462 1461 1460 1458 1457 1455 1454 1452 1451 1449
1416 1416 1416 1416 1415 1414 1413 1412 1412 1413 1414 1415 1416 1419 1421 1424 1426 1429 1433 1437 1439 1443 1446 1449 1452 1454 1455 1457 1459 1460 1461 1461 1462 1461 1461 1460 1458 1457 1455 1454 1452 1450 1448 1446
1414 1410 1412 1411 1411 1411 1410 1410 1409 1410 1412 1413 1415 1417 1420 1422 1424 1427 1431 1435 1440 1444 1448 1450 1452 1454 1456 1458 1459 1460 1461 1461 1461 1460 1460 1459 1457 1456 1454 1452 1450 1448 1445 1443
1412 1409 1408 1407 1407 1407 1407 1406 1406 1408 1409 1411 1413 1416 1418 1420 1422 1425 1428 1433 1438 1443 1447 1450 1453 1454 1456 1457 1458 1459 1460 1460 1460 1459 1459 1458 1456 1455 1452 1450 1448 1445 1443 1440
1408 1405 1402 1401 1401 1402 1402 1402 1403 1406 1407 1408 1411 1413 1416 1419 1421 1424 1429 1434 1438 1441 1445 1449 1452 1454 1455 1456 1457 1458 1459 1459 1459 1458 1457 1456 1455 1452 1450 1448 1446 1444 1441 1439
1404 1401 1399 1398 1397 1397 1398 1399 1401 1403 1405 1407 1409 1411 1413 1416 1419 1424 1428 1433 1437 1441 1445 1447 1450 1452 1454 1455 1456 1457 1458 1458 1458 1457 1456 1455 1452 1450 1448 1446 1444 1442 1439 1437
1402 1400 1397 1396 1396 1397 1397 1399 1400 1401 1403 1405 1407 1409 1412 1415 1419 1423 1428 1431 1436 1441 1444 1447 1449 1451 1452 1454 1455 1456 1457 1457 1456 1455 1454 1452 1450 1447 1446 1444 1442 1439 1437 1435
1401 1399 1398 1398 1398 1398 1398 1398 1400 1401 1403 1405 1407 1410 1413 1416 1419 1423 1428 1432 1435 1439 1442 1445 1447 1449 1451 1452 1454 1454 1455 1455 1454 1453 1452 1450 1447 1446 1443 1441 1440 1437 1435 1433
1402 1400 1399 1399 1398 1398 1399 1400 1401 1403 1405 1406 1409 1410 1413 1416 1419 1422 1425 1431 1435 1438 1441 1444 1446 1448 1449 1451 1452 1453 1453 1452 1451 1450 1449 1447 1445 1443 1442 1440 1437 1435 1433 1431
1404 1403 1401 1399 1398 1397 1400 1400 1401 1403 1404 1407 1409 1412 1413 1416 1420 1423 1428 1431 1434 1437 1439 1442 1444 1446 1447 1449 1450 1450 1450 1450 1449 1447 1446 1444 1442 1440 1439 1437 1435 1432 1430 1428
1403 1402 1401 1401 1400 1400 1400 1400 1401 1401 1402 1404 1407 1410 1413 1416 1420 1422 1425 1428 1432 1434 1437 1440 1442 1444 1445 1447 1448 1448 1448 1447 1446 1444 1442 1440 1439 1437 1435 1433 1431 1429 1427 1424
1403 1402 1401 1400 1399 1399 1399 1399 1399 1400 1401 1402 1404 1406 1411 1414 1417 1420 1424 1427 1429 1432 1435 1437 1439 1441 1443 1444 1445 1445 1445 1444 1442 1441 1439 1437 1435 1433 1431 1429 1427 1425 1423 1420
1402 1401 1400 1399 1398 1397 1396 1396 1396 1397 1398 1400 1402 1404 1407 1411 1414 1417 1420 1423 1426 1429 1432 1434 1436 1438 1440 1441 1442 1442 1442 1440 1439 1437 1435 1433 1431 1429 1428 1425 1423 1421 1419 1416
Wind_Speed
3 4 2 5 4 8 11 9 6 3 6 11 12 14 23 12 18 19 19 25 23 15 11 14 11 10 12 13 15 13 12 8 10 13 16 18 20 22 25 25 24 24 25 26
3 4 6 5 7 8 9 10 12 19 22 24 28 22 11 11 14 14 20 24 14 7 7 7 7 7 9 10 8 6 4 5 10 14 17 21 23 23 23 21 23 26 24 21
4 4 3 5 8 13 7 5 14 12 20 13 9 8 8 9 9 12 14 14 9 4 5 4 5 7 8 6 5 4 6 11 14 16 19 21 21 20 20 26 26 23 22 19
2 4 2 6 3 6 14 9 14 14 14 14 8 10 6 5 8 8 8 8 5 3 3 4 4 3 1 1 1 4 9 11 13 13 14 17 19 22 24 23 22 20 16 12
1 2 6 1 3 5 6 5 11 15 13 5 7 6 4 4 7 4 4 4 2 0 1 1 0 1 3 7 7 9 11 11 9 9 14 20 22 24 23 23 21 17 12 8
1 1 3 2 1 3 4 3 5 11 7 1 2 3 1 3 2 1 2 2 2 2 2 3 5 5 4 8 10 10 13 15 16 18 20 23 23 23 20 16 14 10 8 7
5 3 6 7 6 3 2 3 8 7 11 4 3 1 1 1 2 3 3 3 4 4 5 6 5 4 6 9 11 16 20 22 21 22 23 22 21 18 16 13 12 11 8 4
3 3 6 4 1 3 3 7 8 10 8 9 7 5 3 4 4 5 4 4 4 4 6 6 5 7 7 10 15 14 16 21 23 21 19 17 15 14 14 12 9 6 2 0
7 5 6 5 8 13 12 10 8 8 8 9 9 8 6 6 6 6 8 8 8 7 8 12 6 11 18 22 21 21 22 21 19 18 16 16 14 12 10 7 4 2 1 2
1 4 12 19 13 12 8 8 9 8 8 11 11 11 8 10 9 10 12 12 13 14 16 17 17 20 22 21 19 18 18 17 16 15 15 13 10 8 5 3 2 3 4 6
4 8 17 15 9 2 6 7 7 6 7 11 12 13 11 12 12 13 14 16 18 18 19 20 19 18 18 17 18 17 16 16 14 12 10 8 5 4 2 1 3 5 7 8
5 4 5 14 9 7 7 6 5 4 5 10 13 14 16 15 15 13 14 17 19 17 18 18 16 17 17 16 13 12 13 12 11 8 6 4 2 1 2 5 9 10 11 12
6 14 22 22 16 12 10 6 4 4 5 10 15 14 17 18 17 16 16 15 16 16 16 18 17 17 15 13 11 9 7 8 6 4 2 2 3 4 5 7 8 10 11 11
14 17 16 14 9 7 8 8 6 4 6 10 14 15 17 19 20 19 19 17 15 16 17 17 16 14 13 11 9 7 5 4 2 0 1 2 3 5 6 8 9 10 11 12
8 8 12 16 13 9 9 9 8 7 9 13 16 17 19 23 23 23 21 19 18 17 17 17 15 13 12 9 7 5 4 3 3 3 3 4 5 7 9 11 11 12 12 12
22 17 14 12 10 9 9 10 10 10 11 13 15 17 19 21 21 22 22 23 22 21 19 17 14 12 11 9 8 7 6 5 4 3 4 5 7 9 10 11 12 13 13 13
19 21 15 16 15 13 12 11 11 11 11 12 14 17 19 20 19 22 23 23 20 18 18 17 15 13 12 11 9 8 6 5 4 4 5 7 9 10 11 12 13 13 13 13
15 19 21 23 24 19 16 14 13 12 12 12 15 17 19 21 22 24 24 24 23 21 20 18 15 14 14 12 10 7 6 4 4 5 7 8 9 10 12 12 12 12 13 12
10 13 15 14 16 19 18 15 14 12 13 14 16 17 18 19 20 22 22 24 25 26 25 21 18 16 14 11 9 7 5 5 5 6 8 9 10 11 12 12 12 13 13 12
9 9 7 8 9 10 10 11 12 12 13 14 16 17 19 20 21 24 26 28 27 26 24 21 18 16 13 11 8 7 6 6 7 8 9 10 11 12 12 12 12 12 12 12
12 10 7 4 1 3 5 6 10 12 13 14 15 17 18 20 23 25 29 29 27 25 21 20 18 15 12 10 8 7 7 7 8 9 10 10 12 12 13 12 12 12 12 11
13 11 9 6 3 2 3 4 8 9 12 14 15 17 19 23 26 27 27 26 26 25 22 20 17 15 12 10 9 8 8 8 9 10 10 12 13 13 13 13 12 12 13 12
12 10 7 4 3 2 4 6 8 8 10 13 15 17 19 21 24 27 27 27 25 23 21 19 17 15 13 11 10 9 9 9 11 11 12 13 14 14 14 13 13 13 14 13
11 8 7 7 6 4 5 7 9 11 10 12 14 15 19 23 24 24 22 23 22 21 20 20 17 15 13 12 10 10 10 11 11 12 13 14 15 15 15 14 14 14 16 16
12 11 7 4 3 4 6 8 9 12 14 17 17 17 18 21 22 21 24 22 21 21 21 20 17 16 13 12 11 10 11 12 12 12 14 15 15 15 14 14 14 16 16 16
10 9 9 8 6 6 6 8 10 12 14 17 20 20 20 21 22 21 21 21 21 21 22 20 18 15 14 12 11 11 12 12 12 14 15 15 15 14 14 14 15 17 16 15
11 10 9 7 7 7 8 9 10 12 13 16 18 21 21 23 23 23 23 22 21 22 22 20 17 15 14 13 12 12 13 12 13 15 15 15 15 14 15 16 16 15 13 13
Wind_Direction
252 239 188 197 196 187 203 203 191 277 238 270 282 301 304 304 325 337 336 336 332 326 323 312 296 302 292 281 299 299 291 265 236 220 204 194 184 188 190 189 196 192 180 175
296 267 216 238 223 206 214 224 252 264 278 276 283 284 286 312 339 336 340 345 360 355 333 318 300 306 312 312 307 297 266 192 190 184 180 180 181 182 184 180 172 168 169 171
293 339 350 299 226 209 201 200 220 245 252 285 289 296 291 317 334 344 338 340 350 348 332 323 312 316 316 304 294 251 188 180 170 172 173 169 169 165 160 156 158 167 166 166
291 347 250 246 239 189 199 232 215 248 267 278 284 294 284 306 344 334 333 351 347 355 330 336 328 338 360 69 257 182 153 160 158 165 160 151 158 150 149 150 154 151 156 166
274 256 287 277 158 135 169 267 209 227 253 281 339 314 285 310 330 316 345 16 21 42 340 319 163 126 148 145 141 129 125 131 130 141 154 152 145 143 143 150 147 145 145 147
274 238 251 251 88 140 141 346 245 216 247 236 328 302 93 334 337 353 28 89 160 155 130 105 120 132 135 118 124 128 130 131 137 149 145 144 132 135 135 134 125 129 109 134
233 265 285 256 266 188 82 249 322 290 271 227 222 241 196 66 80 76 114 139 158 146 142 145 137 103 125 125 124 128 131 133 141 143 138 131 130 129 125 123 105 121 141 159
164 203 271 229 96 188 212 315 312 310 276 246 240 180 163 127 102 94 121 127 125 145 143 126 114 131 130 137 137 143 144 138 132 129 125 119 117 118 113 113 110 118 128 64
186 215 240 235 256 283 292 304 306 295 277 236 199 180 160 151 121 108 112 125 129 137 131 133 136 123 123 120 123 126 125 123 121 118 115 113 113 110 108 114 132 158 204 314
139 253 247 271 295 289 289 294 297 281 262 228 206 188 165 157 143 124 119 121 121 115 118 121 119 123 118 122 124 122 119 120 122 122 116 107 100 97 96 99 71 359 332 314
247 289 291 279 266 273 301 303 296 291 252 224 204 193 188 159 156 148 140 128 124 125 124 124 127 128 126 128 127 126 127 124 118 114 111 109 115 116 106 349 314 313 312 316
230 257 289 293 310 289 307 315 305 286 235 209 216 205 196 180 165 161 155 144 139 139 136 132 136 133 130 126 124 132 131 128 125 122 118 117 112 71 351 344 339 330 322 320
251 306 304 293 279 275 283 271 287 286 247 211 211 214 205 192 179 172 169 165 162 156 153 146 144 144 141 137 136 133 127 127 125 122 109 57 18 353 334 326 319 316 318 321
293 301 292 279 261 284 254 267 272 258 222 209 213 209 211 200 193 188 180 170 165 160 159 157 153 151 147 147 146 148 144 140 133 87 320 300 300 313 322 323 323 324 326 327
350 340 281 283 290 273 261 263 258 240 216 208 211 217 210 205 203 190 190 176 174 171 170 170 167 164 158 158 161 172 182 202 224 247 267 302 325 329 328 326 328 330 330 328
307 304 296 288 283 270 262 257 251 237 220 217 215 211 214 211 209 198 188 185 183 182 180 178 175 175 173 177 188 197 207 219 239 262 297 318 324 324 326 330 330 329 330 332
305 300 298 280 280 277 280 272 254 246 228 219 211 208 208 204 203 199 192 190 184 191 188 186 185 185 187 188 195 207 218 232 249 282 308 317 321 325 328 329 328 330 332 332
292 287 284 271 266 275 279 271 246 231 224 216 208 206 205 206 203 197 193 182 180 185 190 191 195 196 194 195 198 208 221 238 267 295 309 315 320 323 325 325 330 333 331 328
310 296 287 277 263 260 268 254 232 227 219 212 208 206 206 204 204 196 184 183 185 186 188 192 196 198 199 198 203 211 227 252 281 297 306 311 316 321 323 328 333 333 331 330
340 323 303 287 263 254 240 220 221 220 211 207 204 204 203 199 194 187 185 188 192 191 193 191 193 197 198 202 210 218 237 261 282 295 302 308 317 321 326 327 328 330 332 336
1 358 357 342 243 194 196 216 222 211 207 203 203 199 194 187 186 186 188 191 191 193 198 196 197 199 201 207 218 229 245 267 284 295 299 310 317 321 322 323 323 327 329 332
1 5 8 7 344 284 231 219 214 200 190 187 196 197 191 189 187 190 197 196 190 193 198 199 198 200 206 215 225 236 254 273 286 293 302 310 315 318 320 319 318 323 323 323
360 359 351 339 338 318 255 219 201 203 204 206 203 196 198 197 195 193 194 192 200 200 199 200 202 206 212 220 232 246 263 279 292 297 306 313 316 317 318 315 315 317 316 318
360 357 343 331 322 294 271 253 229 220 216 215 213 211 205 197 199 201 201 202 201 205 204 204 207 212 219 227 238 253 270 285 292 298 307 313 314 314 313 313 314 315 314 314
357 357 354 332 308 287 268 262 251 237 227 218 214 215 212 210 215 208 202 205 208 207 208 209 212 218 224 234 245 260 275 287 292 301 308 312 311 310 311 311 313 313 311 310
341 347 347 339 323 297 280 265 253 246 240 232 223 210 214 212 213 211 215 211 213 212 212 215 219 221 228 239 251 267 279 289 295 303 309 310 310 310 311 311 313 312 311 312
319 315 312 309 307 296 280 270 261 255 250 241 232 219 212 214 216 211 211 216 215 215 215 217 219 224 234 244 256 271 284 290 299 306 310 309 310 310 311 314 314 312 314 315